Member area
Imprimable
Terwagne, 13/04/2018, BEL - Challenge Condrusien - Le jogging de Terwagne
List of reports > Condrusien - Result
Search: Page: [1]
74 Entries
 
Complains are not accepted anymore. Results are final.
Category
PosNrNameAgeNATLeagueTeamRealTimeTkmMoy.PlaceNameScrPtsCity
1.421ROSILLON Caroline31BELSER ATHL54:1754:174:32 13.271dam81GRIVEGNÉE
2.564LENS Pauline26BEL55:4055:414:39 12.932dam100MODAVE
3.40KÉRIS Monique54BELJIA56:1356:174:42 12.801ai2104BONCELLES
4.42DEVAUX Emmanuelle47BEL56:1556:174:42 12.791ai1105MARCHIN
5.168FORTEMPS Amélie34BEL58:2958:314:53 12.303dam137CLAVIER
6.240HEINDRICHS Angelique43BELJOG'IN ATTITUDE59:1859:184:57 12.142ai1148VIERSET-BARSE
7.393ROBINET Sarah22BELFOULÉES DU PLAISIR59:2659:274:58 12.114dam150HUY
8.232DESTRES Linda44BEL59:421:00:025:01 11.993ai1154MIÉCRET
9.426DOCQUIER Delphine32BELRUNNING TEAM CONDROZ1:00:441:00:475:04 11.855dam165MARCHIN
10.558CUISENAIRE Kathleen39BEL1:01:271:01:315:08 11.716dam172JENEFFE-EN-CONDROZ
11.163MACHIELS Stéphanie31BEL1:01:341:01:535:10 11.647dam177MODAVE
12.616PISVIN Sonia50BELRU4FUN HAVELANGE1:01:591:02:005:10 11.612ai2178PLAINEVAUX
13.7541VANDENSAVEL Manon30BELWAC1:01:591:02:125:11 11.588dam181
14.7724CAMUS Stéphanie33BELARCH1:02:111:02:155:12 11.579dam184HAVELANGE
15.347CONTRERAS Nathalie32BEL1:02:191:02:255:13 11.5410dam185CLAVIER
16.377DEMOITIE Maude37BEL1:02:531:02:565:15 11.4411dam191FRAITURE
17.58DEJARDIN Christelle44BELLES FRELONS1:04:111:04:195:22 11.204ai1207JEHAY
18.285POIZAT Sophie52BELNEUPRÉ AC1:04:121:04:355:23 11.153ai2212NEUVILLE-EN-CONDROZ
19.33NAHON Sylvie50BELWACO1:04:281:04:365:23 11.154ai2213NEUVILLE EN CONDROZ
20.7778PAIRON Christelle38BEL1:04:401:04:515:25 11.1012dam216
21.381DELHOUGNE Anne-Sophie23BEL1:05:031:05:095:26 11.0513dam219FRAITURE
22.458DEMOITIE Agnes54BELBOUM BOUM1:05:151:05:175:27 11.035ai2222CLAVIER
23.170DANIELS Catherine43BELJIA1:05:151:05:175:27 11.035ai1223SERAING
24.3946DONIS Nathalie45BEL1:05:471:05:495:30 10.946ai1224WARZEE
25.298HAMONIC Isabelle52BELNEUPRE AC1:05:321:05:535:30 10.936ai2225NEUPRÉ
26.394SCHOLBERG Juliette38BELLES FRELONS1:07:061:07:165:37 10.7114dam234TIHANGE
27.7305MEYLEMANS Stéphanie42BELHST1:07:341:07:495:40 10.627ai1237FEXHE-SLINS
28.7781LONNEUX Aurelie25BEL1:07:371:07:525:40 10.6115dam238
29.7796SCUVEE Caroline43BEL1:08:411:09:005:45 10.448ai1248
30.7734HAUZEUR Dominique40BELLES FRELONS1:09:061:09:165:47 10.409ai1249MODAVE
31.395SIMAL Fanny24BELSIMAL1:09:341:09:345:48 10.3516dam250MEAN
32.320HOUTHOOFDT Nathalie50BELFOULÉES DU PLAISIR1:09:491:09:555:50 10.307ai2252COUTHUIN
33.28BODART Véronique43BELNEUPRE AC1:10:091:10:095:51 10.2610ai1254NEUPRÉ
34.476SEPUL Beatrice62BELJCPMF CLAVIER1:10:191:10:215:52 10.241ai3262CLAVIER
35.221LEGRAIN Emmanuelle49BELRU4FUN HAVELANGE1:10:031:10:215:52 10.2411ai1263HAVELANGE
36.335HEYNE Zelie27BELJCPMF AMAY1:10:031:10:245:52 10.2317dam265OMBRET
37.7693HUSSON Melanie37BELFOULÉES DU PLAISIR1:10:561:11:055:56 10.1318dam268
38.423DARIMONT Marie-Anne50BELJCPMF ANGLEUR1:10:571:11:085:56 10.128ai2270EMBOURG
39.289MARICHAL Stéphanie45BEL1:10:521:11:155:57 10.1112ai1272GRIVEGNÉE
40.252FOSSION Sylvie47BELRU4FUN HAVELANGE1:10:581:11:165:57 10.1013ai1273HAVELANGE
41.2COUVREUR Esmeralda58BELRUN'ESSENCE1:11:271:11:315:58 10.079ai2275HERMALLE.SOU/HUY
42.55STIERNON Josiane61BEL1:11:391:11:475:59 10.032ai3277MOMALLE
43.109GOUDESEUNE Claudine64BELNEUPRE AC1:11:581:12:086:01 9.983ai3280NEUPRÉ
44.306FRANCHIOLY Christine64BELNEUPRE AC1:13:111:13:336:08 9.794ai3284SCRY TINLOT
45.7823NANIOT Delphine36BEL1:13:391:13:526:10 9.7519dam287
46.7754NOIRHOMME Stephanie33BEL1:14:001:14:116:11 9.7120dam288
47.571VERJANS Sarah36BELLES FRELONS1:14:021:14:126:11 9.7021dam290MARCHIN
48.7770GASQUARD Catherine36BELLES FRELONS1:14:021:14:126:11 9.7022dam291
49.345PETIT Ludivine42BELJIA1:14:041:14:166:12 9.7014ai1294ESNEUX
50.7723CAMPION Morgane31BEL1:14:041:14:216:12 9.6823dam295HUY
51.7801BLOCKX Catherine42BEL1:14:161:14:276:13 9.6715ai1296
52.7802VANHOVE Eglantine22BEL1:14:461:15:046:16 9.5924dam298
53.235THIRY Fabienne53BELRUNNING TEAM CONDROZ1:15:161:15:376:18 9.5210ai2300MARCHIN
54.318MOSSIAT Jennifer32BEL1:15:281:15:426:19 9.5125dam302LISOGNE
55.7811GILLOT Anne35BEL1:15:261:15:516:20 9.4926dam303
56.7831LANGE Aureliem36BEL1:16:351:16:586:25 9.3627dam305
57.374BERNARD Cécile41BEL1:16:521:17:116:26 9.3316ai1307NANDRIN
58.52VANDELEENE Catherine38BEL1:16:531:17:116:26 9.3328dam308NEUPRÉ
59.147DEWITTE Christine43BELLES D'ZYS1:17:321:17:466:29 9.2617ai1310FRAITURE
60.369DEGRANGE Valerie36BELJCPMF MODAVE1:18:091:18:156:32 9.2029dam3124560
61.270THOMAS Amelie31BELRUN'ESSENCE1:18:091:18:166:32 9.2030dam313ENGIS
62.7728GENOTTE Caroline46BEL1:18:151:18:406:34 9.1518ai1315CLAVIER
63.7721ANDRE Isabelle41BELTAF1:18:291:18:466:34 9.1419ai1316LES AVINS
64.485DESSART Lucie28BELNEUPRE AC1:19:111:19:356:38 9.0531dam319MODAVE
65.17JEHAES Christel43BELNEUPRE AC1:19:101:19:356:38 9.0520ai1320NEUPRÉ
66.7786MOSSIAT Stephy26BEL1:19:371:19:586:40 9.0032dam321
67.7510SAVONA Rosalia36BEL1:19:391:20:016:41 9.0033dam322
68.7783MASERI Fiorella50BEL1:21:281:21:476:49 8.8011ai2324
69.94VANDELEENE Mélanie41BEL1:22:221:22:406:54 8.7121ai1327NEUPRÉ
70.7739NYSTEN Aurélie38BEL1:22:521:23:126:56 8.6534dam329OUFFET
71.134SIMON Cindy35BELSER ATHL1:23:531:24:137:02 8.5535dam332SERAING
72.102LECLÈRE Cécile49BEL1:25:251:25:407:09 8.4122ai1336CLAVIER
73.7745SOMJA Florence34BEL1:30:251:30:357:33 7.9536dam338SERAING
74.357BENTEIN Steffi26BEL1:40:391:40:558:25 7.1337dam340BORLON
DNF: did not finish; DSQ: disqualified; Speed in km/h
Page: [1]